| time (UTC) | temp F | wind direction | speed MPH | gust MPH | rain 1hr in | rain 24hr in | rain mn in | humidity % | barometer mb |
| 20260505230012 | 77 | 213 | 3.0 | 11.0 | 0.00 | 0.00 | 0.00 | 71 | 1012.1 |
| 20260505224516 | 78 | 210 | 5.0 | 10.0 | 0.00 | 0.00 | 0.00 | 70 | 1011.8 |
| 20260505223017 | 78 | 147 | 3.0 | 7.0 | 0.00 | 0.00 | 0.00 | 69 | 1011.9 |
| 20260505221518 | 79 | 171 | 5.0 | 10.0 | 0.00 | 0.00 | 0.00 | 68 | 1011.9 |
| 20260505220018 | 79 | 195 | 5.0 | 11.0 | 0.00 | 0.00 | 0.00 | 68 | 1011.7 |
| 20260505214509 | 80 | 153 | 3.0 | 11.0 | 0.00 | 0.00 | 0.00 | 68 | 1011.9 |
| 20260505213015 | 81 | 215 | 6.0 | 9.0 | 0.00 | 0.00 | 0.00 | 65 | 1011.8 |
| 20260505211518 | 81 | 136 | 5.0 | 13.0 | 0.00 | 0.00 | 0.00 | 64 | 1011.8 |
| 20260505210022 | 81 | 171 | 4.0 | 10.0 | 0.00 | 0.00 | 0.00 | 63 | 1011.9 |
| 20260505204525 | 82 | 86 | 4.0 | 12.0 | 0.00 | 0.00 | 0.00 | 62 | 1011.9 |
| 20260505203012 | 83 | 145 | 6.0 | 14.0 | 0.00 | 0.00 | 0.00 | 59 | 1011.9 |
| 20260505201522 | 82 | 185 | 2.0 | 9.0 | 0.00 | 0.00 | 0.00 | 62 | 1012.0 |
| 20260505200024 | 82 | 198 | 4.0 | 11.0 | 0.00 | 0.00 | 0.00 | 59 | 1012.3 |
| 20260505194505 | 82 | 174 | 3.0 | 13.0 | 0.00 | 0.00 | 0.00 | 59 | 1012.3 |
| 20260505193010 | 82 | 201 | 4.0 | 10.0 | 0.00 | 0.00 | 0.00 | 60 | 1012.6 |
| 20260505191512 | 83 | 146 | 4.0 | 10.0 | 0.00 | 0.00 | 0.00 | 57 | 1012.5 |
| 20260505190020 | 83 | 172 | 6.0 | 12.0 | 0.00 | 0.00 | 0.00 | 57 | 1012.8 |
| 20260505184526 | 82 | 129 | 6.0 | 11.0 | 0.00 | 0.00 | 0.00 | 58 | 1013.0 |
| 20260505183015 | 83 | 224 | 6.0 | 13.0 | 0.00 | 0.00 | 0.00 | 56 | 1013.1 |
| 20260505181512 | 83 | 217 | 6.0 | 10.0 | 0.00 | 0.00 | 0.00 | 56 | 1013.4 |
| 20260505180016 | 81 | 124 | 3.0 | 7.0 | 0.00 | 0.00 | 0.00 | 58 | 1013.3 |
| 20260505174520 | 81 | 176 | 6.0 | 11.0 | 0.00 | 0.00 | 0.00 | 58 | 1013.5 |
| 20260505173023 | 82 | 158 | 3.0 | 13.0 | 0.00 | 0.00 | 0.00 | 59 | 1013.6 |
| 20260505171508 | 80 | 272 | 6.0 | 13.0 | 0.00 | 0.00 | 0.00 | 58 | 1013.6 |
| 20260505170011 | 80 | 233 | 9.0 | 13.0 | 0.00 | 0.00 | 0.00 | 58 | 1013.9 |
| 20260505164520 | 80 | 214 | 5.0 | 13.0 | 0.00 | 0.00 | 0.00 | 59 | 1013.9 |
| 20260505163022 | 79 | 216 | 6.0 | 13.0 | 0.00 | 0.00 | 0.00 | 61 | 1013.8 |
| 20260505161528 | 78 | 206 | 4.0 | 14.0 | 0.00 | 0.00 | 0.00 | 65 | 1013.8 |
| 20260505153018 | 76 | 237 | 4.0 | 12.0 | 0.00 | 0.00 | 0.00 | 66 | 1014.1 |
| 20260505151521 | 75 | 144 | 4.0 | 14.0 | 0.00 | 0.00 | 0.00 | 67 | 1014.3 |
| 20260505124524 | 56 | 120 | 0.0 | 0.0 | 0.00 | 0.00 | 0.00 | 94 | 1014.2 |
| 20260505123028 | 54 | 120 | 0.0 | 0.0 | 0.00 | 0.00 | 0.00 | 94 | 1014.2 |
| 20260505121513 | 53 | 120 | 0.0 | 0.0 | 0.00 | 0.00 | 0.00 | 94 | 1014.0 |
| 20260505120020 | 52 | 120 | 0.0 | 0.0 | 0.00 | 0.00 | 0.00 | 94 | 1013.9 |
| 20260505114522 | 51 | 120 | 0.0 | 0.0 | 0.00 | 0.00 | 0.00 | 94 | 1013.9 |
| 20260505113030 | 50 | 120 | 0.0 | 0.0 | 0.00 | 0.00 | 0.00 | 94 | 1013.8 |
| 20260505111511 | 50 | 120 | 0.0 | 0.0 | 0.00 | 0.00 | 0.00 | 93 | 1013.5 |
| 20260505101513 | 51 | 118 | 0.0 | 0.0 | 0.00 | 0.00 | 0.00 | 93 | 1013.7 |
| 20260505100013 | 51 | 118 | 0.0 | 0.0 | 0.00 | 0.00 | 0.00 | 94 | 1013.7 |
| 20260505094524 | 51 | 118 | 0.0 | 0.0 | 0.00 | 0.00 | 0.00 | 93 | 1013.5 |
| 20260505093004 | 51 | 119 | 0.0 | 0.0 | 0.00 | 0.00 | 0.00 | 93 | 1013.3 |
| 20260505091507 | 51 | 118 | 0.0 | 0.0 | 0.00 | 0.00 | 0.00 | 93 | 1013.3 |
| 20260505090009 | 51 | 118 | 0.0 | 0.0 | 0.00 | 0.00 | 0.00 | 93 | 1013.2 |
| 20260505084517 | 51 | 118 | 0.0 | 0.0 | 0.00 | 0.00 | 0.00 | 92 | 1013.3 |
| 20260505083019 | 52 | 118 | 0.0 | 0.0 | 0.00 | 0.00 | 0.00 | 92 | 1013.3 |
| 20260505081504 | 52 | 118 | 0.0 | 0.0 | 0.00 | 0.00 | 0.00 | 92 | 1013.4 |
| 20260505080006 | 52 | 118 | 0.0 | 0.0 | 0.00 | 0.00 | 0.00 | 91 | 1013.7 |
| 20260505074508 | 52 | 119 | 0.0 | 0.0 | 0.00 | 0.00 | 0.00 | 91 | 1013.7 |
| 20260505073020 | 53 | 119 | 0.0 | 0.0 | 0.00 | 0.00 | 0.00 | 92 | 1013.9 |
| 20260505071518 | 53 | 119 | 0.0 | 0.0 | 0.00 | 0.00 | 0.00 | 92 | 1014.0 |
| 20260505070035 | 53 | 119 | 0.0 | 0.0 | 0.00 | 0.00 | 0.00 | 91 | 1014.3 |
| 20260505064508 | 53 | 118 | 0.0 | 0.0 | 0.00 | 0.00 | 0.00 | 90 | 1014.2 |
| 20260505063012 | 54 | 118 | 0.0 | 0.0 | 0.00 | 0.00 | 0.00 | 89 | 1014.2 |
| 20260505061523 | 55 | 118 | 0.0 | 0.0 | 0.00 | 0.00 | 0.00 | 88 | 1014.4 |
| 20260505060021 | 55 | 118 | 0.0 | 0.0 | 0.00 | 0.00 | 0.00 | 87 | 1014.5 |
| 20260505054530 | 56 | 118 | 0.0 | 0.0 | 0.00 | 0.00 | 0.00 | 86 | 1014.8 |
| 20260505053007 | 56 | 118 | 0.0 | 0.0 | 0.00 | 0.00 | 0.00 | 84 | 1014.7 |
| 20260505051520 | 57 | 118 | 0.0 | 0.0 | 0.00 | 0.00 | 0.00 | 83 | 1014.7 |
| 20260505041510 | 59 | 147 | 0.0 | 0.0 | 0.00 | 0.00 | 0.00 | 78 | 1014.9 |
| 20260505040018 | 61 | 141 | 0.0 | 2.0 | 0.00 | 0.00 | 0.00 | 76 | 1014.7 |
| 20260505034524 | 62 | 120 | 0.0 | 5.0 | 0.00 | 0.00 | 0.00 | 74 | 1014.7 |
| 20260505033025 | 62 | 133 | 1.0 | 4.0 | 0.00 | 0.00 | 0.00 | 73 | 1014.6 |
| 20260505031537 | 63 | 139 | 1.0 | 5.0 | 0.00 | 0.00 | 0.00 | 72 | 1014.6 |
| 20260505030012 | 63 | 181 | 0.0 | 5.0 | 0.00 | 0.00 | 0.00 | 72 | 1014.4 |
| 20260505024517 | 63 | 125 | 0.0 | 4.0 | 0.00 | 0.00 | 0.00 | 73 | 1014.4 |
| 20260505023020 | 63 | 121 | 0.0 | 2.0 | 0.00 | 0.00 | 0.00 | 72 | 1014.5 |
| 20260505021506 | 63 | 151 | 1.0 | 5.0 | 0.00 | 0.00 | 0.00 | 71 | 1014.5 |
| 20260505020007 | 63 | 85 | 1.0 | 2.0 | 0.00 | 0.00 | 0.00 | 73 | 1014.3 |
| 20260505014512 | 63 | 130 | 0.0 | 1.0 | 0.00 | 0.00 | 0.00 | 75 | 1014.1 |
| 20260505013018 | 64 | 114 | 0.0 | 1.0 | 0.00 | 0.00 | 0.00 | 75 | 1014.1 |
| 20260505011521 | 65 | 176 | 0.0 | 1.0 | 0.00 | 0.00 | 0.00 | 73 | 1013.9 |
| 20260505010006 | 67 | 176 | 0.0 | 0.0 | 0.00 | 0.00 | 0.00 | 68 | 1013.9 |
| 20260505004512 | 70 | 176 | 0.0 | 2.0 | 0.00 | 0.00 | 0.00 | 60 | 1013.9 |
| 20260505003015 | 73 | 194 | 1.0 | 4.0 | 0.00 | 0.00 | 0.00 | 55 | 1013.8 |
| 20260505001521 | 76 | 115 | 2.0 | 4.0 | 0.00 | 0.00 | 0.00 | 49 | 1013.6 |
| 20260505000025 | 77 | 205 | 0.0 | 7.0 | 0.00 | 0.00 | 0.00 | 48 | 1013.7 |
| 20260504234509 | 77 | 136 | 4.0 | 8.0 | 0.00 | 0.00 | 0.00 | 46 | 1013.7 |
| 20260504233012 | 78 | 215 | 3.0 | 8.0 | 0.00 | 0.00 | 0.00 | 44 | 1013.8 |
| 20260504231517 | 79 | 134 | 2.0 | 6.0 | 0.00 | 0.00 | 0.00 | 43 | 1013.8 |